Regional Weather Roundup
Issued by NWS

Home | Current Version | Previous Version | Text Only | Print | Product List | Glossary Off
Versions: 1 2 3 4 5 6 7 8 9 10 11 12 13 14 15 16 17 18 19 20 21 22 23 24 25 26 27 28 29 30 31 32 33 34 35 36 37 38 39 40 41 42 43 44 45 46 47 48 49 50

973
ASUS43 KLSX 280207
RWRMO

WEATHER SUMMARY FOR MISSOURI
NATIONAL WEATHER SERVICE SPRINGFIELD MO
800 PM CST MON FEB 27 2017

NOTE: "FAIR" INDICATES FEW OR NO CLOUDS BELOW 12,000 FEET WITH NO
       SIGNIFICANT WEATHER AND/OR OBSTRUCTIONS TO VISIBILITY.
       CURRENT SKY AND/OR WEATHER CONDITIONS ARE NOT AVAILABLE FOR
       CHILLICOTHE AND FARMINGTON.

MOZ001>031-035>038-043-044-053-054-280300-
...NORTHERN AND WESTERN MISSOURI...

CITY           SKY/WX    TMP DP  RH WIND       PRES   REMARKS
KANSAS CTY INT CLOUDY    58  44  60 S12       29.77F
KANSAS C DTWN  CLOUDY    60  46  59 S10       29.78F
LEE`S SUMMIT   CLOUDY    59  45  59 S12       29.80S
ST JOSEPH      CLEAR     52  37  56 S9        29.78R
CHILLICOTHE      N/A     54  34  46 SE7       29.82F
KIRKSVILLE     CLOUDY    54  33  45 SE13      29.85F

$$
MOZ066>068-077>081-088>096-101>105-280300-
...SOUTHWEST MISSOURI...

CITY           SKY/WX    TMP DP  RH WIND       PRES   REMARKS
SPRINGFIELD    CLOUDY    60  50  69 S20G28    29.90R
JOPLIN         CLOUDY    63  53  70 S16G24    29.85R
BRANSON        CLOUDY    55  48  76 SE13      29.95S

$$
MOZ032>034-039>042-045>050-055>058-069>072-280300-
...CENTRAL MISSOURI...

CITY           SKY/WX    TMP DP  RH WIND       PRES   REMARKS
COLUMBIA       PTCLDY    60  39  45 SE14      29.87F
JEFFERSON CITY PTCLDY    59  39  47 SE12      29.88F
ROLLA          PTCLDY    57  42  57 SE14G21   29.92S
SEDALIA        CLOUDY    59  40  49 SE9       29.85F
WHITEMAN AFB   MOCLDY    58  43  56 S9        29.81F
WARRENSBURG    CLOUDY    55  43  62 SE9       29.81F
OSAGE BEACH    CLOUDY    60  44  55 S12G18    29.89

$$
MOZ051-052-059>065-280300-
...EAST CENTRAL MISSOURI...

CITY           SKY/WX    TMP DP  RH WIND       PRES   REMARKS
ST LOUIS INTL  MOCLDY    59  46  62 SE20G26   29.98S
SPIRIT OF STL  PTCLDY    60  45  57 S10G21    29.96R
ST CHARLES     CLOUDY    58  46  64 SE17      29.96S

$$
MOZ072>076-082>087-097>100-106>115-280300-
...SOUTH CENTRAL AND SOUTHEAST MISSOURI...

CITY           SKY/WX    TMP DP  RH WIND       PRES   REMARKS
CAPE GIRARDEAU MOCLDY    55  47  74 SE7       30.06R
FARMINGTON     CLEAR     54  48  80 S13       30.02F
POPLAR BLUFF   PTCLDY    54  49  83 S3        30.05R
WEST PLAINS    CLOUDY    54  49  83 SE8G18    30.01S

$$



USA.gov is the U.S. government's official web portal to all federal, state and local government web resources and services.